Погода Ивано-Франковск

Поиск расширенной информации на нашем сайте:

Полезная информация:

Новости сайта



02.01.2020
Опубликован Долгосрочный прогноз погоды по городам России и ближнего зарубежья на январь 2020 года.
Карты: Прогноз на январь и февраль 2020 года, Сравнение прогнозируемой аномалии приземной температуры воздуха на январь 2020 года по разным моделям.




Погода Ивано-Франковск - сегодня

Время (UTC), дата Ветер
(°,м/с) 
Видим.   Явления Облачность Т
(°С)
Тd
(°С)
f(%) Тe
(°С)
Pmin
(гПа)
dP
(гПа)
Po
(мм)
O2
(г/м3)
Тmin Tmax R s Состояние
почвы
21 15.04.21 290 (З) 10 км  слаб. ливневой дождь  10/10 600 м кучево-дожд. 
[Cb cap]
+2.9 +0.3 83 +2  1017.5  -0.3  737  294           
00 16.04.21 290 (З) 10 км  {ливн. осадки}  10/10 900 м кучево-дожд. 
[Cb cap]
+2.2 -0.5 82 +1  1016.6  -1  737  294      0.0     
03 16.04.21 280 (З) 10 км    10/10 1200 м 
[Sc]
+2.3 -1 79 +2  1015.6  -1  736  294           
06 16.04.21 270 (З) 50000 м    8/8 1000 м 
[Sc]
+4.3 -1.1 68 +3  1015  -0.3  736  292  +2.1    0.0     
09 16.04.21 280 (З) 50000 м    9/9 1000 м 
[Sc]
+7.2 -0.5 58 +5  1014.7  0.1  736  289           
15 16.04.21 280 (З) 50000 м    9/8 1380 м средняя 
[Sc|Ac trans]
+7.7 -1.4 52 +6  1016  0.5  737  289           
18 16.04.21 270 (З) 10 км  слаб. ливневой дождь  10/10 600 м кучево-дожд. 
[Cb calv]
+5.6 +0.8 71 +3  1017.7  1.4  738  291    +8.5  0.0     
21 16.04.21 290 (З) 10 км  {ливн. осадки, дождь}  9/9 800 м 
[Sc]
+4.1 +1 80 +4  1018.4  0.5  738  293           
00 17.04.21 310 (СЗ) 10 км  {ливн. осадки, дождь}  6/6 1200 м 
[Sc]
+4.2 +0.9 79 +4  1018.3  -0.1  738  293      0.0     
03 17.04.21 310 (СЗ) 50000 м    9/8 1200 м средняя 
[Sc|Ac trans]
+4.5 +0.6 76 +4  1018.5  0.2  738  292           
06 17.04.21 300 (СЗ) 50000 м    9/6 1300 м средняя 
[Sc|Ac trans]
+5.4 +1.1 74 +6  1019.4  739  292  +3.9    0.0     
09 17.04.21 110 (В) 50000 м    9/9 1300 м 
[Sc]
+7.7 +1.6 65 +8  1019.1  739  289           
15 17.04.21 040 (СВ) 50000 м    8/8 1300 м 
[Sc]
+10.1 +2.4 59 +10  1018.5  739  287           
18 17.04.21 030 (СВ) 20000 м    8/8 1200 м 
[Sc]
+8 +2.3 67 +8  1019.3  0.5  739  289    +11       
21 17.04.21 030 (СВ) 20000 м    8/8 1200 м 
[Sc]
+5.5 +1.8 77 +6  1019.9  0.3  739  292           
03 18.04.21 тихо ()   10 км    6/6 900 м 
[Sc]
+2.5 +0.7 88 +3  1019.4  -0.4  739  295           
06 18.04.21 050 (СВ) 15000 м    9/9 1200 м 
[Sc]
+5.6 +3.5 86 +6  1019.6  0.5  739  291  +1.6         
09 18.04.21 100 (В) 30000 м    9/6 1000 м верхняя 
[Cu hum|Ci fib]
+9.9 +2.7 61 +9  1018.5  -0.5  739  287           
15 18.04.21 040 (СВ) 50000 м    10/0 средняя 
[Ac und]
+11.3 +2 53 +11  1017.2  -0.3  738  285           
18 18.04.21 200 (Ю) 30000 м    10/5 1380 м средняя 
[Sc|Ac und]
+9 +2.4 63 +10  1018  0.5  738  288    +12.1       
21 18.04.21 220 (ЮЗ) 20000 м    10/10 1200 м 
[Sc]
+7.8 +3.1 72 +8  1018  -0.1  738  289           
03 19.04.21 тихо ()   10 км    9/9 1380 м 
[Sc]
+4.2 +2.5 89 +4  1016.6  -0.6  737  292           
06 19.04.21 тихо ()   10 км    9/5 1500 м средняя 
[Sc|Ac trans]
+6.9 +3.4 78 +7  1016.3  737  289  +3.8         
09 19.04.21 010 (С) 10  0100 м    9/9 1000 м 
[Sc]
+4.1   1015.6  -0.2  737             
15 19.04.21 020 (С) 10 км  слаб. ливневой дождь  10/10 700 м кучево-дожд. 
[Cb cap]
+11.8 +5.6 66 +12  1014  -0.5  736  283           
Время (UTC), дата Ветер
(°,м/с) 
Видим.   Явления Облачность Т
(°С)
Тd
(°С)
f(%) Тe
(°С)
Pmin
(гПа)
dP
(гПа)
Po
(мм)
O2
(г/м3)
Тmin Tmax R s Состояние
почвы

Для получения пояснительной информации подведите курсор к названию столбца.

ПОГОДА Ивано-Франковск - архив

Всё, что Вы хотите узнать о погоде Ивано-Франковск - удобно и подробно!

Выберите нужную дату (начиная с 1 января 2019* года) и нажмите кнопку "Найти".
Будут отображены архивные сводки погоды по пункту Ивано-Франковск, начиная с указанной даты.


Отображать данные в формате CSV (для использования в таблицах Excel)


Внимание! Наш архив погоды предназначен исключительно для личного некоммерческого использования в познавательных целях. Если Вам необходимы официальные справки о состоянии погоды (для производственных, юридических, коммерческих и т.п. целей), обращайтесь в органы Росгидромета.

*Примечание: данная дата относится к архиву по метеостанциям СССР (Россия, СНГ, Балтия).
Архив по метеостанциям Зарубежной Европы и Азии (кроме Китая) хранится 10 дней, по другим регионам земного шара (Китай, Африка, Америка, Австралия, Океания) - 1 день.

Ивано-Франковск - район местоположения метеостанции


Название, широта, долгота, высота метеостанции:
Ивано-Франковск 49°ш. 24.4°д. 280 м над ур. моря [Украина]

Дополнительная информация

В oтличие oт бoльшинства пoгoдных сайтoв мы публикуем пoдрoбную метеoинфoрмацию в детальнoм прoфессиoнальнoм фoрмате.

Характеристики температуры и влажнoсти вoздуха измеряются на высoте 2 м в тени вдали oт зданий и деревьев.
Скoрoсть ветра измеряется на высoте 10 м (на урoвне рoста челoвека скoрoсть ветра ниже в 1.5-2 раза). Если метеoстанция нахoдится в гoрoде или в лесу, тo скoрoсть ветра занижена на 2-4 м/с пo сравнению с oткрытым местoм. Скoрoсть ветра над акватoриями крупных рек и oзёр, а также на вершинах хoлмoв на 2-5 м/с выше, чем в oбычных услoвиях.
Атмoсфернoе давление в разных тoчках местнoсти мoжет значительнo oтличаться oт давления на метеoстанции, в зависимoсти oт услoвий рельефа (при пoдъёме на 10 м давление пoнижается примернo на 1 мм рт.ст.).